Glendive, MT

11:39 AM MST on December 08, 2019 (GMT -0700)
Dawson Community

Weather History for KGDV - October, 2019

Change the Weather History Date:

Monday, October 21, 2019

  Actual Average Record
Temperature  
Mean Temperature 37 °F 46 °F  
Max Temperature 52 °F 58 °F 84 °F (2003)
Min Temperature 21 °F 34 °F 21 °F (1997)
Degree Days  
Heating Degree Days 28 19  
Month to date heating degree days 479 318  
Year to date heating degree days 6346 4717  
Since 1 July heating degree days 780 425  
Cooling Degree Days 0 0  
Month to date cooling degree days 0 0  
Year to date cooling degree days 465 382  
Since 1 July cooling degree days 465 382  
Moisture  
Dew Point 26 °F    
Average Humidity 70    
Maximum Humidity 89    
Minimum Humidity 43    
Precipitation  
Precipitation T in 0.03 in 0.12 in (2004)
Month to date precipitation 0.40 0.84  
Year to date precipitation 17.57 12.50  
Sea Level Pressure  
Sea Level Pressure 30.03 in    
Wind  
Wind Speed 5 mph (WNW)    
Max Wind Speed 13 mph    
Max Gust Speed -    
Visibility 10 miles    
Events      
T = Trace of Precipitation, MM = Missing Value Source: NWS Daily Summary

Daily Weather History Graph

Daily Weather History Graph

Search for Another Location

Airport or City:

Astronomy

Oct. 21, 2019 Rise Set
Actual Time 7:25 AM MDT 6:01 PM MDT
Civil Twilight 6:54 AM MDT 6:32 PM MDT
Nautical Twilight 6:19 AM MDT 7:07 PM MDT
Astronomical Twilight 5:43 AM MDT 7:42 PM MDT
Moon No Moon Rise 2:59 PM MDT (10/21)
Length of Visible Light 11h 37m
Length of Day
10h 35m
Waning Gibbous, 47% of the Moon is Illuminated
Oct 21
Waning Gibbous
Oct 27
New
Nov 4
First Quarter
Nov 12
Full
Nov 19
Last Quarter

Hourly Weather History & Observations

Time (MDT) Temp. Windchill Dew Point Humidity Pressure Visibility Wind Dir Wind Speed Gust Speed Precip Events Conditions
12:56 AM 27.0 °F 20.5 °F 21.9 °F 81% 29.97 in 10.0 mi NW 5.8 mph - N/A   Clear
1:56 AM 26.1 °F 18.4 °F 21.9 °F 84% 29.97 in 10.0 mi NW 6.9 mph - N/A   Clear
2:56 AM 26.1 °F 18.4 °F 21.0 °F 81% 29.97 in 10.0 mi NW 6.9 mph - N/A   Clear
3:56 AM 25.0 °F 19.3 °F 21.0 °F 85% 29.97 in 10.0 mi WNW 4.6 mph - N/A   Clear
4:56 AM 27.0 °F - 21.9 °F 81% 29.98 in 10.0 mi Calm Calm - N/A   Clear
5:56 AM 21.9 °F - 19.0 °F 89% 30.02 in 10.0 mi Calm Calm - N/A   Partly Cloudy
6:56 AM 24.1 °F - 19.9 °F 84% 30.04 in 10.0 mi Calm Calm - N/A   Mostly Cloudy
7:56 AM 26.1 °F 21.9 °F 23.0 °F 88% 30.04 in 10.0 mi SSE 3.5 mph - N/A   Clear
8:56 AM 32.0 °F 28.7 °F 26.1 °F 79% 30.05 in 10.0 mi SSW 3.5 mph - N/A   Clear
9:56 AM 36.0 °F 31.1 °F 28.0 °F 73% 30.05 in 10.0 mi South 5.8 mph - N/A   Clear
10:56 AM 42.1 °F 38.4 °F 28.9 °F 60% 30.04 in 10.0 mi SSW 5.8 mph - N/A   Clear
11:56 AM 46.0 °F 43.1 °F 28.9 °F 51% 30.02 in 10.0 mi South 5.8 mph - N/A   Clear
12:56 PM 50.0 °F - 30.0 °F 46% 30.01 in 10.0 mi Calm Calm - N/A   Clear
1:56 PM 48.9 °F - 32.0 °F 52% 30.00 in 10.0 mi Calm Calm - 0.00 in   Mostly Cloudy
2:56 PM 51.1 °F - 30.0 °F 44% 29.99 in 10.0 mi NW 8.1 mph - N/A   Scattered Clouds
3:56 PM 50.0 °F - 28.0 °F 43% 30.02 in 10.0 mi NNW 12.7 mph - N/A   Clear
4:56 PM 48.0 °F - 28.0 °F 46% 30.04 in 10.0 mi NW 10.4 mph - N/A   Mostly Cloudy
5:56 PM 42.1 °F 37.1 °F 28.0 °F 58% 30.07 in 10.0 mi NNW 8.1 mph - N/A   Clear
6:56 PM 37.0 °F 30.4 °F 27.0 °F 67% 30.09 in 10.0 mi NW 9.2 mph - N/A   Clear
7:56 PM 36.0 °F 29.0 °F 28.0 °F 73% 30.09 in 10.0 mi North 9.2 mph - N/A   Overcast
8:56 PM 37.0 °F 31.0 °F 28.9 °F 73% 30.08 in 10.0 mi North 8.1 mph - N/A   Overcast
9:56 PM 35.1 °F 31.0 °F 28.9 °F 78% 30.07 in 10.0 mi West 4.6 mph - N/A   Overcast
10:56 PM 34.0 °F 28.0 °F 28.9 °F 82% 30.06 in 10.0 mi West 6.9 mph - N/A   Mostly Cloudy
11:56 PM 30.9 °F 25.2 °F 27.0 °F 85% 30.04 in 10.0 mi WNW 5.8 mph - N/A   Clear